Date String (YYYY-MM-DD hh:mm:ss) UTC,Instrument flags,Ambient pressure (hPa),Sample flow (lpm),Bypass flow (lpm),Sample temperature (°C),Ambient temperature (°C),ASC tube jacket temperature (°C),LED temperature (°C),Box temperature (°C),Sample RH (%),Span deviation,Mass concentration (μg/m³),Mass concentration (μg/m³),Mass concentration (μg/m³)
DateTimeUTC,F1_M11,P_M11,Q1_M11,Q2_M11,T1_M11,T2_M11,T3_M11,T4_M11,T5_M11,U1_M11,ZSPAN_M11,X0_M11,X2_M11,X1_M11
2021-08-26 10:00:00,,0830.1,5.00,0.00,29.8,28.6,00.0,39.0,31.6,33.4,0001.0,0019.19,0010.09,0008.78
2021-08-26 10:01:00,,0830.1,5.01,0.00,29.9,28.7,00.0,39.0,31.6,33.7,0000.5,0019.18,0010.05,0008.79
2021-08-26 10:02:00,,0830.1,5.00,0.00,29.9,28.8,00.0,39.0,31.7,33.6,0000.1,0019.63,0010.09,0008.78
2021-08-26 10:03:00,,0830.1,5.00,0.00,29.9,28.9,00.0,39.0,31.7,33.4,-000.1,0021.08,0010.12,0008.79
2021-08-26 10:04:00,,0830.1,5.00,0.00,29.9,28.9,00.0,39.0,31.8,33.2,-000.2,0021.52,0010.22,0008.82
2021-08-26 10:05:00,,0830.1,5.01,0.00,30.0,29.0,00.0,39.0,31.7,33.4,-000.2,0022.19,0010.30,0008.85
2021-08-26 10:06:00,,0830.1,5.01,0.00,30.0,29.1,00.0,39.0,31.8,33.7,-000.1,0022.30,0010.36,0008.88
2021-08-26 10:07:00,,0830.1,5.00,0.00,30.0,29.1,00.0,39.1,31.8,34.1,0000.2,0022.45,0010.48,0008.91
2021-08-26 10:08:00,,0830.1,5.00,0.00,30.0,29.2,00.0,39.1,31.8,34.5,0000.3,0022.90,0010.55,0008.94
2021-08-26 10:09:00,,0830.1,4.99,0.00,30.0,29.2,00.0,39.1,31.9,34.5,0000.1,0023.87,0010.65,0008.96
2021-08-26 10:10:00,,0830.1,5.00,0.00,30.1,29.2,00.0,39.1,31.9,34.7,0000.2,0024.54,0010.71,0009.00
2021-08-26 10:11:00,,0830.2,5.01,0.00,30.1,29.3,00.0,39.1,31.9,34.4,0000.5,0025.15,0010.79,0009.02
2021-08-26 10:12:00,,0830.2,4.99,0.00,30.1,29.3,00.0,39.1,31.9,34.4,0000.8,0025.24,0010.92,0009.05
2021-08-26 10:13:00,,0830.2,5.00,0.00,30.1,29.4,00.0,39.2,32.0,34.7,0001.0,0025.78,0011.03,0009.11
2021-08-26 10:14:00,,0830.2,5.00,0.00,30.2,29.4,00.0,39.2,32.0,34.7,0000.9,0024.58,0011.09,0009.15
2021-08-26 10:15:00,,0830.2,5.00,0.00,30.2,29.4,00.0,39.2,32.0,34.8,0000.8,0024.14,0011.11,0009.19
2021-08-26 10:16:00,,0830.1,5.00,0.00,30.2,29.4,00.0,39.2,32.0,34.8,0000.9,0023.56,0011.14,0009.22
2021-08-26 10:17:00,,0830.1,5.00,0.00,30.2,29.5,00.0,39.2,32.0,34.7,0000.9,0022.99,0011.20,0009.27
2021-08-26 10:18:00,,0830.1,5.01,0.00,30.2,29.4,00.0,39.3,32.1,33.6,0000.8,0023.17,0011.13,0009.28
2021-08-26 10:19:00,,0830.1,5.00,0.00,30.2,28.0,00.0,39.2,31.7,32.6,0000.8,0023.48,0011.15,0009.29
2021-08-26 10:20:00,,0830.1,5.00,0.00,30.0,26.5,00.0,39.2,31.2,33.3,0000.9,0023.61,0011.18,0009.31
2021-08-26 10:21:00,,0830.1,5.00,0.00,29.9,26.3,00.0,39.2,31.1,34.5,0000.7,0023.12,0011.16,0009.30
2021-08-26 10:22:00,,0830.1,4.99,0.00,29.8,26.7,00.0,39.1,31.2,34.3,0000.7,0023.06,0011.19,0009.32
2021-08-26 10:23:00,,0830.0,5.00,0.00,29.7,27.1,00.0,39.0,31.3,33.9,0000.6,0023.74,0011.16,0009.32
2021-08-26 10:24:00,,0830.1,4.99,0.00,29.7,27.4,00.0,39.0,31.3,33.5,0000.5,0023.10,0011.16,0009.29
2021-08-26 10:25:00,,0830.1,5.00,0.00,29.6,27.7,00.0,39.0,31.3,33.0,0000.7,0022.88,0011.09,0009.26
2021-08-26 10:26:00,,0830.1,5.01,0.00,29.6,27.9,00.0,39.0,31.3,32.6,0000.7,0023.19,0011.10,0009.22
2021-08-26 10:27:00,,0830.1,4.99,0.00,29.6,28.0,00.0,38.9,31.3,32.0,0000.8,0023.21,0011.11,0009.20
2021-08-26 10:28:00,,0830.1,5.00,0.00,29.6,28.2,00.0,38.9,31.3,31.4,0000.9,0023.64,0011.10,0009.17
2021-08-26 10:29:00,,0830.1,5.00,0.00,29.6,28.3,00.0,38.9,31.3,31.5,0000.9,0023.40,0011.14,0009.16
2021-08-26 10:30:00,,0830.1,5.00,0.00,29.6,28.3,00.0,38.9,31.3,31.5,0000.9,0023.24,0011.14,0009.17
2021-08-26 10:31:00,,0830.1,5.00,0.00,29.6,28.4,00.0,38.9,31.3,31.4,0001.0,0022.61,0011.07,0009.15
2021-08-26 10:32:00,,0830.1,5.00,0.00,29.6,28.4,00.0,38.9,31.3,31.5,0001.4,0024.46,0011.12,0009.16
2021-08-26 10:33:00,,0830.0,5.01,0.00,29.5,28.5,00.0,38.8,31.2,31.4,0001.5,0024.75,0011.04,0009.14
2021-08-26 10:34:00,,0829.9,5.00,0.00,29.5,28.5,00.0,38.8,31.2,31.3,0001.5,0023.75,0010.96,0009.13
2021-08-26 10:35:00,,0830.1,5.00,0.00,29.5,28.5,00.0,38.8,31.2,31.4,0001.6,0024.05,0010.91,0009.14
2021-08-26 10:36:00,,0829.8,5.00,0.00,29.5,28.5,00.0,38.8,31.2,31.5,0001.5,0025.04,0010.92,0009.16
2021-08-26 10:37:00,,0829.8,4.99,0.00,29.5,28.5,00.0,38.8,31.2,31.8,0001.5,0025.33,0010.93,0009.18
2021-08-26 10:38:00,,0829.8,5.01,0.00,29.5,28.5,00.0,38.8,31.2,31.7,0001.2,0025.26,0010.93,0009.19
2021-08-26 10:39:00,,0829.8,5.01,0.00,29.5,28.5,00.0,38.8,31.2,31.3,0001.1,0025.59,0010.94,0009.21
2021-08-26 10:40:00,,0829.8,5.00,0.00,29.4,28.5,00.0,38.8,31.1,30.9,0001.2,0025.58,0010.94,0009.22
2021-08-26 10:41:00,,0829.9,5.00,0.00,29.4,28.5,00.0,38.8,31.2,30.7,0001.4,0025.74,0010.93,0009.20
2021-08-26 10:42:00,,0829.9,5.01,0.00,29.4,28.6,00.0,38.7,31.2,30.8,0001.3,0026.53,0010.96,0009.20
2021-08-26 10:43:00,,0829.8,5.00,0.00,29.4,28.6,00.0,38.7,31.2,31.0,0001.2,0024.66,0010.92,0009.19
2021-08-26 10:44:00,,0829.8,5.00,0.00,29.4,28.6,00.0,38.7,31.2,31.5,0000.9,0023.61,0010.95,0009.19
2021-08-26 10:45:00,,0829.8,5.01,0.00,29.4,28.6,00.0,38.7,31.2,31.8,0000.8,0024.46,0011.01,0009.20
2021-08-26 10:46:00,,0829.8,4.99,0.00,29.4,28.6,00.0,38.7,31.2,31.7,0000.7,0025.32,0011.04,0009.21
2021-08-26 10:47:00,,0829.8,5.01,0.00,29.4,28.6,00.0,38.7,31.2,31.9,0000.9,0024.45,0011.05,0009.20
2021-08-26 10:48:00,,0829.8,5.00,0.00,29.4,28.6,00.0,38.7,31.2,32.0,0001.0,0024.39,0011.05,0009.18
2021-08-26 10:49:00,,0829.8,5.00,0.00,29.4,28.6,00.0,38.7,31.1,32.9,0001.3,0024.08,0011.07,0009.18
2021-08-26 10:50:00,,0829.7,5.00,0.00,29.4,28.6,00.0,38.7,31.1,32.8,0001.7,0024.11,0011.09,0009.18
2021-08-26 10:51:00,,0829.7,5.00,0.00,29.4,28.6,00.0,38.7,31.1,32.8,0001.6,0024.31,0011.12,0009.18
2021-08-26 10:52:00,,0829.7,4.99,0.00,29.4,28.6,00.0,38.7,31.1,33.0,0001.7,0023.35,0011.11,0009.19
2021-08-26 10:53:00,,0829.6,5.00,0.00,29.4,28.6,00.0,38.7,31.2,33.3,0001.8,0022.45,0011.10,0009.20
2021-08-26 10:54:00,,0829.7,5.00,0.00,29.4,28.6,00.0,38.7,31.2,33.2,0001.7,0023.37,0011.16,0009.21
2021-08-26 10:55:00,,0829.8,5.00,0.00,29.4,28.7,00.0,38.7,31.2,33.1,0001.5,0024.83,0011.24,0009.22
2021-08-26 10:56:00,,0829.7,5.00,0.00,29.4,28.7,00.0,38.7,31.2,32.8,0001.6,0024.92,0011.29,0009.24
2021-08-26 10:57:00,,0829.7,5.00,0.00,29.4,28.7,00.0,38.7,31.2,32.7,0001.7,0025.12,0011.27,0009.24
2021-08-26 10:58:00,,0829.6,5.01,0.00,29.4,28.7,00.0,38.7,31.2,32.6,0001.2,0025.24,0011.26,0009.24
2021-08-26 10:59:00,,0829.6,4.99,0.00,29.4,28.7,00.0,38.7,31.2,32.6,0000.9,0025.31,0011.30,0009.25
